Location: Frankfurt am Main
(50.1109°N, 8.6821°E)
Time: 02:05:58
(UTC+01:00)

ISS - Visible Passes

Search period start: 19 November 2019 00:00
Search period end: 29 November 2019 00:00
Orbit: 412 x 421 km, 51.6° (Epoch: 19 November)

Date Brightness Start Highest point End Pass type
(mag) Time Alt. Az. Time Alt. Az. Time Alt. Az.
22 Nov -1.5 18:28:41 10° S 18:29:57 15° SSE 18:29:57 15° SSE visible
23 Nov -1.3 17:42:04 10° SE 17:42:40 10° SE 17:43:16 10° SE visible
23 Nov -1.3 19:15:30 10° SW 19:16:39 19° SW 19:16:39 19° SW visible
24 Nov -2.7 18:27:23 10° SSW 18:30:19 32° SSE 18:30:19 32° SSE visible
25 Nov -2.1 17:39:28 10° SSW 17:42:09 22° SE 17:43:56 15° ESE visible
25 Nov -1.7 19:15:12 10° WSW 19:16:51 27° WSW 19:16:51 27° WSW visible
26 Nov -3.7 18:26:50 10° WSW 18:30:08 62° SSE 18:30:24 59° SE visible
27 Nov -3.1 17:38:33 10° SW 17:41:45 44° SSE 17:43:54 18° E visible
27 Nov -1.7 19:15:04 10° W 19:16:48 28° W 19:16:48 28° W visible
28 Nov -3.9 18:26:34 10° WSW 18:29:56 83° NNW 18:30:16 70° ENE visible
